Zurück zum Katalog

MMS 1

AktivWissenschaftHEO
NORAD 40482·PAYLOAD·🇺🇸 United States

Gestartet Mar 13, 2015 von Cape Canaveral Space Force Station

Loading…

Nächste Überflüge (nächste 24 Stunden)

TLE

AktuellSource: Space-Track

Epoche: Sep 14, 2026, 16:00 UTC

1 40482U 15011A   26257.66671296 -.00001854  00000-0  00000-0 0  9990
2 40482  72.9529 347.7738 8256880 169.3950  66.2300  0.28334835  1412

Verfolge MMS 1 in Echtzeit mit AllMySat

Download on the App Store